Printer-friendly version

IAU Minor Planet Center

Minor Planet Center

MPEC 2004-S10 : 1999 RZ214

The following Minor Planet Electronic Circular may be linked-to from your own Web pages, but must not otherwise be redistributed electronically.


Read MPEC 2004-S09 Read MPEC 2004-S11


M.P.E.C. 2004-S10                                Issued 2004 Sept. 17, 17:00 UT

     The Minor Planet Electronic Circulars contain information on unusual
         minor planets and routine data on comets.  They are published
   on behalf of Commission 20 of the International Astronomical Union by the
          Minor Planet Center, Smithsonian Astrophysical Observatory,
                          Cambridge, MA 02138, U.S.A.

                  Supported in part by the Brinson Foundation
             Prepared using the Tamkin Foundation Computer Network

                              MPC@CFA.HARVARD.EDU
          URL http://cfa-www.harvard.edu/iau/mpc.html  ISSN 1523-6714

                                  1999 RZ214

                           Revision to MPEC 2000-A26

Additional Observations:
     J99RL4Z  C2000 12 27.22947 00 25 08.531+11 40 35.16         23.1 R ES010568
     J99RL4Z  C2000 12 28.23874 00 25 09.610+11 40 22.20         23.2 R ES010568
     J99RL4Z  C2003 11 21.13688 00 46 04.66 +12 18 01.6          23.0 R ES010695
     J99RL4Z  C2003 11 21.18662 00 46 04.50 +12 17 59.9                 ES010695

Observer details:
568 Mauna Kea.  Observers H. Aussel, M. Connelley.  Measurer M. Connelley.
    3.6-m Canada-France-Hawaii Telescope + CCD.
695 Kitt Peak.  Observers L. H. Wasserman, E. I. Chiang, J. R. Lovering.
    Measurers M. W. Buie, R. L. Millis, L. H. Wasserman, E. I. Chiang,
    S. N. Hylton, K. B. Clancy, D. E. Trilling, L. E. Hutchison.
    4-m telescope + CCD.

First and last observations above in comparison with prediction:
Residuals in seconds of arc (or two decimals in degrees) and reference
001227 568 58.6- 20.8-    031121 695 0.07- 0.02-    MPC 38082

Orbital elements:
1999 RZ214
Epoch 2004 July 14.0 TT = JDT 2453200.5                 MPC
M  11.94269              (2000.0)            P               Q
n   0.00128216     Peri.  114.33379     +0.82281055     +0.53252355
a  83.9153809      Node   214.48697     -0.55832615     +0.82263772
e   0.5626717      Incl.   20.52204     +0.10608817     +0.19921310
P 769              H    7.8           G   0.15           U   2
Residuals in seconds of arc
990906 568  0.1-  0.1+    991009 568  0.0   0.1-    001228 568  0.1-  0.0
990906 568  0.3+  0.2-    991009 568  0.3-  0.1+    031121 695  0.2+  0.1-
990906 568  0.1+  0.1+    991110 568  0.2-  0.6-    031121 695  0.1-  0.3-
990909 568  0.0   0.0     991110 568  0.2+  0.3-
990909 568  0.0   0.0     001227 568  0.1+  0.1+

Ephemeris:
1999 RZ214               a,e,i = 83.92, 0.56, 21                 q = 36.699
Date    TT    R. A. (2000) Decl.     Delta      r     Elong.  Phase     V
2004 09 12    00 57.35   +13 01.0   40.709   41.589   150.6     0.7    24.1
2004 09 22    00 56.67   +12 56.5   40.652   41.598   160.2     0.5    24.0
2004 10 02    00 55.95   +12 51.5   40.624   41.608   169.2     0.3    24.0
2004 10 12    00 55.22   +12 46.1   40.625   41.617   173.5     0.2    24.0
2004 10 22    00 54.49   +12 40.4   40.656   41.627   167.0     0.3    24.0
2004 11 01    00 53.81   +12 34.7   40.717   41.636   157.6     0.5    24.0
2004 11 11    00 53.19   +12 29.1   40.806   41.645   147.7     0.7    24.1
2004 11 21    00 52.67   +12 23.9   40.920   41.655   137.6     0.9    24.1
2004 12 01    00 52.26   +12 19.2   41.057   41.664   127.5     1.1    24.1
2004 12 11    00 51.99   +12 15.1   41.213   41.674   117.3     1.2    24.1
2004 12 21    00 51.86   +12 11.8   41.383   41.684   107.2     1.3    24.2
2004 12 31    00 51.89   +12 09.4   41.561   41.693    97.0     1.3    24.2
2005 01 10    00 52.08   +12 07.9   41.744   41.703    86.9     1.3    24.2
2005 01 20    00 52.42   +12 07.5   41.925   41.712    76.9     1.3    24.2
2005 01 30    00 52.90   +12 08.1   42.099   41.722    66.9     1.2    24.2
2005 02 09    00 53.53   +12 09.6   42.261   41.731    57.0     1.1    24.2
2005 02 19    00 54.27   +12 12.0   42.407   41.741    47.1     1.0    24.2
2005 03 01    00 55.12   +12 15.3   42.533   41.750    37.4     0.8    24.2

Brian G. Marsden             (C) Copyright 2004 MPC           M.P.E.C. 2004-S10

Read MPEC 2004-S09 Read MPEC 2004-S11


Our Web policy. Index to the CBAT/MPC/ICQ pages.


Valid HTML 4.01!